Wind_Speed
18 19 19 21 20 19 17 16 14 12 10 8 7 6 7 9 10 8 8 7 15 10 7 12 13 7 2 5 6 4 2 8 8 7 5 3 3 2 1 5 8 5 6 9 4
17 17 19 19 19 18 16 15 14 11 9 8 7 7 5 6 5 8 11 11 16 15 10 5 7 6 3 4 2 5 7 8 6 5 6 3 3 1 3 3 3 4 15 19 6
19 17 18 18 18 16 14 14 13 11 9 7 8 7 4 1 1 2 12 14 18 19 14 6 12 6 4 4 6 5 17 15 10 7 7 5 2 1 2 2 3 4 11 16 7
19 19 18 17 17 16 13 12 10 10 9 6 8 7 3 1 2 1 12 10 15 19 14 6 6 7 5 8 6 9 5 12 1 7 6 7 4 2 3 3 6 3 4 8 10
18 18 17 16 15 14 12 10 9 8 7 7 7 7 3 1 4 7 13 10 4 17 14 7 9 5 4 5 7 5 5 11 10 7 8 6 4 5 11 5 1 3 7 9 12
17 17 17 16 14 13 12 10 9 8 6 6 6 7 1 3 2 11 9 10 5 12 11 7 8 4 4 5 7 8 5 7 9 8 7 7 1 1 7 5 4 5 6 6 8
17 17 17 17 17 14 12 11 10 9 7 6 5 4 1 7 10 10 6 7 5 14 5 8 2 4 4 5 4 4 7 4 3 8 5 4 4 16 4 2 6 8 7 8 9
18 18 17 16 16 15 14 12 11 11 8 5 3 1 4 6 9 8 5 8 11 14 14 12 7 1 1 3 4 5 5 5 7 7 4 11 21 16 5 2 10 7 8 8 12
19 18 17 18 16 15 14 13 12 8 6 5 3 2 6 5 5 13 6 4 3 15 17 11 7 4 2 8 4 2 6 6 3 10 5 12 3 6 9 9 14 14 9 8 12
18 19 18 18 16 14 13 13 6 6 2 4 2 2 4 2 6 8 2 3 4 12 9 5 5 7 3 8 14 10 7 4 5 9 8 12 3 1 5 10 14 8 10 11 12
19 19 18 16 14 10 13 3 2 2 1 5 3 3 4 11 4 3 3 2 4 9 5 5 1 13 13 3 5 9 9 8 3 8 7 9 9 4 6 7 7 9 11 9 11
19 19 18 16 15 7 7 1 3 1 4 5 5 4 8 4 2 1 1 3 7 11 8 3 7 8 6 5 8 11 8 3 2 5 5 6 10 11 8 11 12 13 18 17 9
19 18 18 16 12 5 2 3 2 1 1 2 3 2 3 3 1 2 2 3 12 10 6 3 8 6 4 5 9 3 11 5 5 5 1 5 6 9 7 8 11 12 13 12 10
18 18 17 13 1 2 2 4 2 1 4 1 2 1 1 0 4 2 2 3 5 7 3 3 13 11 6 4 5 3 7 7 9 4 3 2 4 8 13 9 14 19 20 15 9
19 19 15 5 1 1 0 6 1 1 4 0 1 1 2 2 2 3 1 2 7 8 3 1 13 14 5 5 4 3 6 5 4 5 3 1 2 4 4 15 20 12 14 11 11
20 17 7 4 5 1 6 3 1 5 2 1 2 2 2 3 1 2 1 5 3 4 5 2 3 3 5 3 3 8 6 7 4 3 2 5 6 3 4 6 5 10 15 14 16
18 6 7 9 3 7 7 2 4 4 3 2 1 4 4 2 4 2 3 2 4 6 3 4 4 3 2 7 4 4 6 3 2 2 4 1 3 8 5 5 6 8 9 11 9
5 7 9 4 6 11 4 2 6 3 2 3 3 4 2 3 3 3 3 4 1 3 4 3 6 2 1 4 6 3 4 4 5 4 3 1 6 4 6 5 5 6 7 5 5
7 10 5 6 10 4 0 4 4 3 1 3 1 3 2 4 3 1 1 3 3 3 2 4 3 2 5 2 2 3 2 4 6 2 1 3 4 9 6 7 4 7 6 8 8
6 4 4 5 5 1 1 1 2 3 3 3 1 1 1 2 1 3 1 1 5 3 5 2 6 5 1 1 6 3 5 2 2 3 4 2 3 5 3 2 6 8 10 7 6
4 3 3 4 2 1 1 3 3 5 2 1 1 2 1 1 3 2 3 1 1 3 3 2 3 2 3 1 5 3 1 4 3 3 3 1 4 6 5 3 6 9 9 8 5
4 2 4 2 1 1 1 2 2 2 1 0 1 1 4 4 2 2 2 2 3 3 3 1 4 4 2 1 0 2 3 4 4 4 0 1 6 3 5 6 4 8 7 3 3
3 2 2 1 1 1 3 3 1 3 2 2 2 1 0 3 4 2 1 5 4 2 4 4 2 4 2 4 3 3 4 4 4 3 5 4 4 2 4 4 3 3 5 3 4
3 2 1 1 1 1 2 4 4 3 3 3 2 2 2 3 5 3 3 4 2 2 8 5 3 4 5 4 4 5 7 11 7 6 10 13 11 14 14 13 9 4 4 5 7
3 1 1 2 1 1 1 3 3 5 6 7 4 4 2 3 2 3 3 2 4 2 3 3 3 3 2 4 4 4 6 11 14 18 12 16 10 15 9 7 7 5 4 6 8
4 4 2 1 1 1 3 3 3 3 3 3 4 4 4 5 3 1 3 1 2 4 2 3 2 2 2 2 3 4 7 9 15 17 19 23 25 16 18 9 12 11 6 8 10
3 2 3 3 1 2 1 2 1 6 1 3 1 1 6 2 1 4 4 0 3 6 3 3 4 2 2 4 4 6 6 9 4 5 13 15 20 11 12 11 9 11 11 12 12
Wind_Direction
354 352 355 358 355 356 0 356 352 355 352 334 314 303 281 269 277 262 246 216 235 239 215 219 194 206 207 177 148 137 139 191 178 159 135 112 107 355 86 92 63 75 38 320 346
349 352 352 356 356 352 358 354 354 0 6 3 356 1 316 271 270 276 273 237 241 227 240 204 174 174 166 158 158 184 213 216 175 151 106 83 79 91 139 71 49 21 9 4 27
349 351 348 348 353 350 355 358 360 8 11 16 7 354 346 231 136 240 343 241 235 235 230 227 193 148 161 144 195 186 208 212 240 216 115 125 80 82 73 95 152 15 354 0 347
344 347 350 349 347 351 352 355 356 7 8 10 10 14 28 94 211 278 352 9 224 231 209 170 161 147 155 170 181 176 180 191 126 220 139 226 159 260 190 225 147 14 23 2 340
347 343 345 343 345 341 344 345 350 354 1 359 354 9 27 37 249 298 322 326 304 208 211 182 158 134 173 150 130 156 173 163 221 146 145 156 154 232 248 181 181 33 32 360 346
345 343 341 340 340 332 333 332 333 333 338 346 343 329 19 260 333 321 299 291 315 189 234 182 173 159 158 160 163 163 135 175 182 168 151 158 182 290 240 143 147 12 351 345 326
343 341 341 338 334 336 322 325 317 305 311 333 340 330 320 247 314 303 286 251 228 205 199 196 222 190 154 135 188 116 135 122 180 165 180 126 259 240 292 9 335 320 326 324 310
339 339 337 334 328 323 321 317 311 301 295 300 310 320 254 255 320 319 294 256 232 211 203 221 225 257 265 116 54 93 119 152 168 159 166 175 236 232 170 341 288 279 303 312 300
334 333 335 335 329 321 315 316 300 285 291 264 279 97 278 285 336 314 279 227 283 190 187 186 235 180 181 132 114 222 171 158 137 187 147 199 254 192 163 188 249 253 257 281 289
333 333 333 333 331 324 315 317 294 263 266 231 242 316 271 312 330 292 306 238 193 142 145 142 262 166 164 162 185 167 128 119 145 192 185 202 302 183 196 190 220 246 246 262 273
329 330 332 328 325 324 321 7 26 302 205 217 188 244 281 313 282 238 40 151 127 153 148 139 300 188 173 127 159 114 122 145 174 170 179 205 221 291 207 225 239 239 231 246 253
328 328 331 328 328 317 302 134 225 272 304 226 265 264 270 280 272 91 88 91 187 160 85 80 217 167 121 103 121 136 118 137 89 150 151 186 229 246 212 220 212 218 244 231 238
328 331 322 326 323 292 221 226 212 334 141 344 261 248 249 204 303 143 140 200 147 119 85 162 162 143 111 113 107 69 167 159 140 107 61 129 266 236 229 226 227 241 244 246 223
325 325 318 323 315 145 201 197 150 12 60 231 221 281 263 327 31 334 61 171 57 125 198 161 146 166 138 120 117 114 161 149 136 115 178 201 264 247 221 217 223 227 242 243 259
325 323 315 299 265 183 28 153 158 101 32 268 84 319 340 343 165 56 360 55 111 128 202 55 155 159 151 166 149 130 121 117 98 94 107 302 265 256 189 224 231 237 236 241 242
327 319 300 164 185 115 129 134 333 46 334 33 110 68 76 356 216 136 85 54 113 115 47 308 101 113 176 114 145 139 89 57 58 95 239 211 205 269 206 219 241 244 238 222 232
331 350 142 145 146 161 139 84 40 95 253 51 58 198 221 148 123 140 99 78 125 128 147 143 122 112 121 99 33 111 104 96 136 208 223 340 236 260 251 209 216 232 239 240 228
7 105 123 85 134 147 134 70 69 237 234 109 195 235 90 139 50 89 107 139 314 68 109 149 142 131 345 98 162 164 156 147 172 190 223 91 230 248 237 269 288 280 268 293 261
120 108 79 95 134 148 67 47 186 230 72 114 292 353 41 97 122 133 169 152 120 118 190 118 93 85 61 122 93 183 121 141 107 61 40 234 291 279 276 297 294 289 282 257 245
142 95 45 152 145 97 134 295 244 231 316 170 122 7 74 43 151 141 143 334 119 181 229 183 104 26 152 93 38 115 154 92 24 134 242 267 273 244 243 303 303 303 299 283 263
128 91 35 131 149 249 282 233 265 246 214 217 25 97 91 124 49 62 127 328 107 126 95 112 83 107 127 23 161 87 94 56 116 145 198 294 257 218 227 236 299 298 294 292 222
114 93 143 174 255 223 247 214 276 295 289 160 85 38 163 161 83 94 158 152 172 162 70 105 107 109 95 79 54 123 167 165 157 225 70 132 265 201 228 280 293 307 300 306 193
99 104 167 187 35 308 295 285 268 350 20 55 96 353 298 150 113 137 88 320 181 90 156 179 98 106 37 5 1 201 180 143 119 90 191 191 252 177 217 295 328 311 301 157 150
104 100 3 216 105 214 6 4 335 14 53 47 30 80 70 49 26 127 76 27 130 108 84 96 105 150 174 197 136 186 201 200 195 233 242 235 271 278 296 298 306 298 239 217 186
35 181 192 187 278 14 110 26 345 9 356 21 24 52 33 66 51 83 110 126 42 48 53 88 115 113 171 148 152 190 206 205 211 230 233 265 251 268 280 277 276 285 239 194 201
131 137 28 91 265 156 23 50 44 331 23 347 83 354 50 86 18 142 124 149 176 30 62 24 113 107 27 76 172 242 213 222 230 236 243 258 272 271 271 262 272 268 246 232 221
115 86 105 319 58 155 94 86 46 328 169 60 254 121 67 59 295 287 277 139 151 145 121 99 126 81 284 352 355 304 240 207 187 227 222 243 254 277 279 271 268 259 251 237 230
Height
818 816 811 809 808 803 800 799 795 792 789 787 786 786 786 787 786 787 788 787 788 788 791 792 795 796 796 797 800 804 814 817 817 816 815 813 814 818 817 818 820 823 825 825 819
817 814 812 809 806 804 801 798 796 793 790 789 787 786 786 785 786 785 786 785 786 788 790 791 792 795 795 797 797 799 813 809 803 806 813 814 815 819 819 820 824 823 822 821 820
816 813 810 808 806 803 800 798 796 793 791 789 788 787 786 785 785 783 782 782 784 785 788 789 791 793 796 799 802 803 802 801 801 805 808 815 817 817 819 823 825 825 824 822 820
815 812 810 806 805 804 801 799 797 794 792 790 788 786 784 785 788 782 782 780 781 785 787 786 789 794 797 797 798 800 804 800 803 802 812 815 815 818 820 818 820 820 823 823 822
814 811 807 804 803 801 800 798 797 794 792 790 788 787 785 785 784 781 780 780 781 782 784 784 787 792 795 794 797 799 800 802 806 807 809 810 816 816 816 815 817 819 819 822 821
811 809 805 803 801 801 799 797 795 794 792 791 789 788 786 788 781 779 779 779 779 780 784 784 783 787 793 793 794 796 798 803 805 805 807 811 814 816 808 813 815 817 819 821 822
810 807 804 802 801 799 797 795 795 792 791 790 788 788 787 784 779 778 776 777 779 781 783 783 786 788 789 795 792 794 801 806 807 807 809 809 817 809 810 813 815 817 817 818 819
808 805 802 798 797 796 795 794 793 791 790 788 787 786 784 777 777 775 774 773 777 780 784 783 788 789 790 790 793 799 803 808 806 808 811 808 806 801 809 809 810 815 816 815 814
805 802 800 799 795 793 792 790 790 789 788 787 786 785 782 777 777 774 773 772 773 778 784 786 792 788 791 791 801 803 804 808 813 807 809 811 812 802 805 811 809 806 812 813 812
802 800 798 795 794 790 788 787 786 787 786 786 785 789 780 776 777 773 772 770 772 776 784 787 786 786 792 788 792 797 807 810 812 810 812 815 812 806 808 806 804 803 805 808 809
800 797 796 791 787 787 788 784 788 788 785 783 782 781 778 775 774 773 773 773 773 776 780 788 795 783 781 788 787 794 803 807 808 807 811 814 813 808 805 809 806 801 803 805 806
797 794 793 789 787 786 785 785 784 785 783 779 781 780 777 776 774 773 773 775 774 775 785 799 791 786 785 786 791 791 806 810 807 809 810 814 812 803 806 807 802 801 794 796 802
794 792 788 785 784 783 785 784 784 785 788 780 779 778 776 777 773 774 773 775 770 778 795 790 783 783 785 791 794 802 798 811 809 812 812 816 815 808 804 803 801 798 794 791 794
790 789 784 783 782 780 781 783 784 785 802 780 777 775 774 773 774 774 773 776 777 786 791 783 781 786 788 792 793 799 800 802 809 812 820 815 816 805 797 800 797 791 788 791 793
787 784 781 781 781 782 785 784 786 785 801 777 775 775 773 775 776 774 775 773 779 786 789 783 782 787 790 790 789 798 799 805 813 819 820 821 819 803 798 796 786 790 790 790 792
783 779 777 780 782 783 784 785 787 804 789 775 773 776 777 780 774 775 774 774 780 782 785 787 782 787 787 792 789 801 806 813 823 823 826 820 818 805 797 792 790 786 781 782 783
779 774 775 779 781 782 783 784 803 805 778 770 772 772 771 768 769 770 775 780 780 783 790 786 786 791 789 794 795 797 804 820 821 823 822 831 825 796 793 786 785 782 780 780 781
777 776 778 780 781 782 783 788 799 779 769 763 766 766 766 770 773 773 778 779 782 781 786 778 790 790 792 791 797 798 799 818 819 825 820 833 815 792 785 784 785 783 781 782 780
777 778 780 782 783 785 786 815 780 775 764 763 764 764 763 764 768 771 774 774 776 783 781 780 789 793 793 795 795 802 806 814 835 853 838 816 811 795 786 783 780 779 779 776 776
777 779 782 783 785 785 784 788 782 772 766 764 768 768 767 767 766 770 776 773 775 779 782 783 787 794 797 795 801 799 806 811 831 836 822 816 818 794 783 781 781 780 776 775 775
776 780 783 784 785 785 780 785 776 768 767 765 766 773 771 769 770 772 775 776 772 777 778 782 785 800 794 797 801 806 813 816 814 824 815 815 798 791 784 780 783 780 778 774 775
776 778 784 785 785 780 780 776 768 766 765 765 766 764 772 769 772 779 776 772 770 771 777 783 789 799 801 802 799 799 804 807 813 825 839 833 804 780 782 782 786 779 777 774 776
781 781 783 785 781 779 777 773 769 767 766 763 766 767 765 770 776 778 775 776 773 772 777 779 801 800 804 801 799 800 801 807 817 825 836 812 793 781 781 778 778 779 779 775 779
780 788 785 783 782 780 779 779 774 767 767 767 768 766 766 771 775 777 776 776 775 775 772 776 797 800 800 798 800 802 794 795 799 801 795 791 783 776 772 772 773 775 777 778 779
781 786 787 795 787 781 781 782 778 779 775 773 770 775 772 772 774 778 779 778 778 777 780 782 801 806 795 797 800 798 798 794 795 792 795 775 785 770 771 773 771 772 772 774 775
781 786 790 794 789 783 780 779 784 781 777 774 774 775 772 779 785 777 778 778 777 782 783 790 804 806 810 799 799 800 800 801 790 786 786 783 780 771 767 771 768 769 772 772 771
779 781 781 793 791 781 788 784 789 784 777 778 777 776 777 780 783 784 784 782 779 784 792 794 808 819 812 808 800 795 785 789 791 788 783 787 767 768 768 768 765 764 765 765 763